Data supplied by UK-AIR on 28/6/2012
All Data GMT hour ending 
Status: R =Ratified P=Provisional,P*=As supplied
,,Narberth,,,,,,,,,,,,,,,,,,,,,,,
Date,time,"PM<sub>10</sub> particulate matter (Hourly measured)",status,unit,"Nitric oxide",status,unit,"Nitrogen dioxide",status,unit,"Nitrogen oxides as nitrogen dioxide",status,unit,"Non-volatile PM<sub>10</sub> (Hourly measured)",status,unit,"Ozone",status,unit,"Sulphur dioxide",status,unit,"Volatile PM<sub>10</sub> (Hourly measured)",status,unit
 
01-01-2011,01:00,,,,0.0,R,ugm-3,1.5,R,ugm-3,1.5,R,ugm-3,,,,58,R,ugm-3,0.0,R,ugm-3,,,
01-01-2011,02:00,,,,,,,,,,,,,,,,48,R,ugm-3,0.0,R,ugm-3,,,
01-01-2011,03:00,,,,0.0,R,ugm-3,5.7,R,ugm-3,5.7,R,ugm-3,,,,42,R,ugm-3,0.0,R,ugm-3,,,
01-01-2011,04:00,,,,0.0,R,ugm-3,4.0,R,ugm-3,4.0,R,ugm-3,,,,48,R,ugm-3,0.0,R,ugm-3,,,
01-01-2011,05:00,,,,0.0,R,ugm-3,4.0,R,ugm-3,4.0,R,ugm-3,,,,52,R,ugm-3,1.6,R,ugm-3,,,
01-01-2011,06:00,,,,0.0,R,ugm-3,2.3,R,ugm-3,2.3,R,ugm-3,,,,58,R,ugm-3,0.0,R,ugm-3,,,
01-01-2011,07:00,,,,0.0,R,ugm-3,2.3,R,ugm-3,2.3,R,ugm-3,,,,56,R,ugm-3,1.6,R,ugm-3,,,
01-01-2011,08:00,,,,0.0,R,ugm-3,4.6,R,ugm-3,4.6,R,ugm-3,,,,48,R,ugm-3,3.2,R,ugm-3,,,
01-01-2011,09:00,,,,0.0,R,ugm-3,4.0,R,ugm-3,4.0,R,ugm-3,,,,50,R,ugm-3,2.4,R,ugm-3,,,
01-01-2011,10:00,,,,0.0,R,ugm-3,5.7,R,ugm-3,5.7,R,ugm-3,,,,44,R,ugm-3,0.0,R,ugm-3,,,
01-01-2011,11:00,,,,0.0,R,ugm-3,4.6,R,ugm-3,4.6,R,ugm-3,,,,46,R,ugm-3,0.0,R,ugm-3,,,
01-01-2011,12:00,,,,0.4,R,ugm-3,8.6,R,ugm-3,9.2,R,ugm-3,,,,42,R,ugm-3,0.0,R,ugm-3,,,
01-01-2011,13:00,,,,0.0,R,ugm-3,9.7,R,ugm-3,9.7,R,ugm-3,,,,40,R,ugm-3,0.0,R,ugm-3,,,
01-01-2011,14:00,,,,0.0,R,ugm-3,9.7,R,ugm-3,9.7,R,ugm-3,,,,36,R,ugm-3,0.0,R,ugm-3,,,
01-01-2011,15:00,,,,0.0,R,ugm-3,4.6,R,ugm-3,4.6,R,ugm-3,,,,52,R,ugm-3,0.0,R,ugm-3,,,
01-01-2011,16:00,,,,0.0,R,ugm-3,2.3,R,ugm-3,2.3,R,ugm-3,,,,54,R,ugm-3,0.0,R,ugm-3,,,
01-01-2011,17:00,,,,0.0,R,ugm-3,4.0,R,ugm-3,4.0,R,ugm-3,,,,48,R,ugm-3,0.0,R,ugm-3,,,
01-01-2011,18:00,,,,0.0,R,ugm-3,2.3,R,ugm-3,2.3,R,ugm-3,,,,54,R,ugm-3,0.0,R,ugm-3,,,
01-01-2011,19:00,,,,0.0,R,ugm-3,2.9,R,ugm-3,2.9,R,ugm-3,,,,52,R,ugm-3,0.0,R,ugm-3,,,
01-01-2011,20:00,,,,0.0,R,ugm-3,2.9,R,ugm-3,2.9,R,ugm-3,,,,60,R,ugm-3,0.0,R,ugm-3,,,
01-01-2011,21:00,,,,0.0,R,ugm-3,1.1,R,ugm-3,1.1,R,ugm-3,,,,66,R,ugm-3,0.0,R,ugm-3,,,
01-01-2011,22:00,,,,0.0,R,ugm-3,0.0,R,ugm-3,0.0,R,ugm-3,,,,64,R,ugm-3,0.0,R,ugm-3,,,
01-01-2011,23:00,,,,0.0,R,ugm-3,0.6,R,ugm-3,0.6,R,ugm-3,,,,60,R,ugm-3,0.0,R,ugm-3,,,
01-01-2011,24:00,,,,0.0,R,ugm-3,2.3,R,ugm-3,2.3,R,ugm-3,,,,52,R,ugm-3,0.0,R,ugm-3,,,
02-01-2011,01:00,,,,1.5,R,ugm-3,2.3,R,ugm-3,4.6,R,ugm-3,,,,50,R,ugm-3,0.0,R,ugm-3,,,
02-01-2011,02:00,,,,,,,,,,,,,,,,48,R,ugm-3,0.0,R,ugm-3,,,
02-01-2011,03:00,,,,1.1,R,ugm-3,7.4,R,ugm-3,9.2,R,ugm-3,,,,44,R,ugm-3,0.0,R,ugm-3,,,
02-01-2011,04:00,,,,1.5,R,ugm-3,6.9,R,ugm-3,9.2,R,ugm-3,,,,40,R,ugm-3,0.0,R,ugm-3,,,
02-01-2011,05:00,,,,1.5,R,ugm-3,3.4,R,ugm-3,5.7,R,ugm-3,,,,48,R,ugm-3,0.0,R,ugm-3,,,
02-01-2011,06:00,,,,1.5,R,ugm-3,4.0,R,ugm-3,6.3,R,ugm-3,,,,48,R,ugm-3,0.0,R,ugm-3,,,
02-01-2011,07:00,,,,1.5,R,ugm-3,6.3,R,ugm-3,8.6,R,ugm-3,,,,42,R,ugm-3,2.4,R,ugm-3,,,
02-01-2011,08:00,,,,1.5,R,ugm-3,5.7,R,ugm-3,8.0,R,ugm-3,,,,42,R,ugm-3,2.4,R,ugm-3,,,
02-01-2011,09:00,,,,1.5,R,ugm-3,5.2,R,ugm-3,7.4,R,ugm-3,,,,42,R,ugm-3,1.6,R,ugm-3,,,
02-01-2011,10:00,,,,1.5,R,ugm-3,5.2,R,ugm-3,7.4,R,ugm-3,,,,42,R,ugm-3,0.0,R,ugm-3,,,
02-01-2011,11:00,,,,1.5,R,ugm-3,4.6,R,ugm-3,6.9,R,ugm-3,,,,44,R,ugm-3,0.8,R,ugm-3,,,
02-01-2011,12:00,,,,1.5,R,ugm-3,4.6,R,ugm-3,6.9,R,ugm-3,,,,46,R,ugm-3,1.6,R,ugm-3,,,
02-01-2011,13:00,,,,1.5,R,ugm-3,4.6,R,ugm-3,6.9,R,ugm-3,,,,48,R,ugm-3,0.8,R,ugm-3,,,
02-01-2011,14:00,,,,1.5,R,ugm-3,4.6,R,ugm-3,6.9,R,ugm-3,,,,50,R,ugm-3,1.6,R,ugm-3,,,
02-01-2011,15:00,,,,1.5,R,ugm-3,3.4,R,ugm-3,5.7,R,ugm-3,,,,50,R,ugm-3,0.0,R,ugm-3,,,
02-01-2011,16:00,,,,1.5,R,ugm-3,5.2,R,ugm-3,7.4,R,ugm-3,,,,46,R,ugm-3,0.0,R,ugm-3,,,
02-01-2011,17:00,,,,1.5,R,ugm-3,7.4,R,ugm-3,9.7,R,ugm-3,,,,42,R,ugm-3,0.0,R,ugm-3,,,
02-01-2011,18:00,,,,1.5,R,ugm-3,4.0,R,ugm-3,6.3,R,ugm-3,,,,46,R,ugm-3,0.0,R,ugm-3,,,
02-01-2011,19:00,,,,1.5,R,ugm-3,2.3,R,ugm-3,4.6,R,ugm-3,,,,46,R,ugm-3,0.0,R,ugm-3,,,
02-01-2011,20:00,,,,1.5,R,ugm-3,4.6,R,ugm-3,6.9,R,ugm-3,,,,44,R,ugm-3,0.0,R,ugm-3,,,
02-01-2011,21:00,,,,1.5,R,ugm-3,2.3,R,ugm-3,4.6,R,ugm-3,,,,46,R,ugm-3,0.0,R,ugm-3,,,
02-01-2011,22:00,,,,1.5,R,ugm-3,2.3,R,ugm-3,4.6,R,ugm-3,,,,46,R,ugm-3,0.0,R,ugm-3,,,
02-01-2011,23:00,,,,1.5,R,ugm-3,1.7,R,ugm-3,4.0,R,ugm-3,,,,46,R,ugm-3,0.0,R,ugm-3,,,
02-01-2011,24:00,,,,1.5,R,ugm-3,0.0,R,ugm-3,2.3,R,ugm-3,,,,44,R,ugm-3,0.0,R,ugm-3,,,
03-01-2011,01:00,,,,0.0,R,ugm-3,3.8,R,ugm-3,3.8,R,ugm-3,,,,42,R,ugm-3,0.0,R,ugm-3,,,
03-01-2011,02:00,,,,,,,,,,,,,,,,50,R,ugm-3,0.0,R,ugm-3,,,
03-01-2011,03:00,,,,0.0,R,ugm-3,5.7,R,ugm-3,5.7,R,ugm-3,,,,50,R,ugm-3,0.0,R,ugm-3,,,
03-01-2011,04:00,,,,0.0,R,ugm-3,4.6,R,ugm-3,4.6,R,ugm-3,,,,46,R,ugm-3,0.8,R,ugm-3,,,
03-01-2011,05:00,,,,0.0,R,ugm-3,2.9,R,ugm-3,2.9,R,ugm-3,,,,46,R,ugm-3,0.0,R,ugm-3,,,
03-01-2011,06:00,,,,0.0,R,ugm-3,3.4,R,ugm-3,3.4,R,ugm-3,,,,48,R,ugm-3,0.0,R,ugm-3,,,
03-01-2011,07:00,,,,0.0,R,ugm-3,2.3,R,ugm-3,2.3,R,ugm-3,,,,50,R,ugm-3,0.0,R,ugm-3,,,
03-01-2011,08:00,,,,0.0,R,ugm-3,2.3,R,ugm-3,2.3,R,ugm-3,,,,52,R,ugm-3,0.0,R,ugm-3,,,
03-01-2011,09:00,,,,6.4,R,ugm-3,7.6,R,ugm-3,17.4,R,ugm-3,,,,52,R,ugm-3,0.0,R,ugm-3,,,
03-01-2011,10:00,,,,0.4,R,ugm-3,3.4,R,ugm-3,4.0,R,ugm-3,,,,56,R,ugm-3,0.0,R,ugm-3,,,
03-01-2011,11:00,,,,0.0,R,ugm-3,2.9,R,ugm-3,2.9,R,ugm-3,,,,56,R,ugm-3,0.0,R,ugm-3,,,
03-01-2011,12:00,,,,7.1,R,ugm-3,17.4,R,ugm-3,28.3,R,ugm-3,,,,58,R,ugm-3,0.0,R,ugm-3,,,
03-01-2011,13:00,,,,0.0,R,ugm-3,3.4,R,ugm-3,3.4,R,ugm-3,,,,62,R,ugm-3,0.0,R,ugm-3,,,
03-01-2011,14:00,,,,0.0,R,ugm-3,4.6,R,ugm-3,4.6,R,ugm-3,,,,66,R,ugm-3,0.0,R,ugm-3,,,
03-01-2011,15:00,,,,0.0,R,ugm-3,5.2,R,ugm-3,5.2,R,ugm-3,,,,60,R,ugm-3,0.0,R,ugm-3,,,
03-01-2011,16:00,,,,0.0,R,ugm-3,4.0,R,ugm-3,4.0,R,ugm-3,,,,64,R,ugm-3,0.0,R,ugm-3,,,
03-01-2011,17:00,,,,0.0,R,ugm-3,4.6,R,ugm-3,4.6,R,ugm-3,,,,64,R,ugm-3,0.0,R,ugm-3,,,
03-01-2011,18:00,,,,0.0,R,ugm-3,7.4,R,ugm-3,7.4,R,ugm-3,,,,62,R,ugm-3,0.8,R,ugm-3,,,
03-01-2011,19:00,,,,0.0,R,ugm-3,8.6,R,ugm-3,8.6,R,ugm-3,,,,60,R,ugm-3,0.0,R,ugm-3,,,
03-01-2011,20:00,,,,0.8,R,ugm-3,9.2,R,ugm-3,10.3,R,ugm-3,,,,56,R,ugm-3,1.6,R,ugm-3,,,
03-01-2011,21:00,,,,0.0,R,ugm-3,6.9,R,ugm-3,6.9,R,ugm-3,,,,52,R,ugm-3,0.8,R,ugm-3,,,
03-01-2011,22:00,,,,0.0,R,ugm-3,8.0,R,ugm-3,8.0,R,ugm-3,,,,46,R,ugm-3,1.6,R,ugm-3,,,
03-01-2011,23:00,,,,0.0,R,ugm-3,5.2,R,ugm-3,5.2,R,ugm-3,,,,48,R,ugm-3,0.0,R,ugm-3,,,
03-01-2011,24:00,,,,0.0,R,ugm-3,2.3,R,ugm-3,2.3,R,ugm-3,,,,54,R,ugm-3,0.8,R,ugm-3,,,
04-01-2011,01:00,,,,0.0,R,ugm-3,2.3,R,ugm-3,2.3,R,ugm-3,,,,58,R,ugm-3,0.0,R,ugm-3,,,
04-01-2011,02:00,,,,,,,,,,,,,,,,58,R,ugm-3,1.1,R,ugm-3,,,
04-01-2011,03:00,,,,0.0,R,ugm-3,4.6,R,ugm-3,4.6,R,ugm-3,,,,56,R,ugm-3,0.0,R,ugm-3,,,
04-01-2011,04:00,,,,0.0,R,ugm-3,5.2,R,ugm-3,5.2,R,ugm-3,,,,50,R,ugm-3,1.6,R,ugm-3,,,
04-01-2011,05:00,,,,0.0,R,ugm-3,4.6,R,ugm-3,4.6,R,ugm-3,,,,52,R,ugm-3,0.8,R,ugm-3,,,
04-01-2011,06:00,,,,0.0,R,ugm-3,5.7,R,ugm-3,5.7,R,ugm-3,,,,46,R,ugm-3,0.8,R,ugm-3,,,
04-01-2011,07:00,,,,0.0,R,ugm-3,5.7,R,ugm-3,5.7,R,ugm-3,,,,50,R,ugm-3,0.0,R,ugm-3,,,
04-01-2011,08:00,,,,1.9,R,ugm-3,9.7,R,ugm-3,12.6,R,ugm-3,,,,46,R,ugm-3,0.8,R,ugm-3,,,
04-01-2011,09:00,,,,0.8,R,ugm-3,8.0,R,ugm-3,9.2,R,ugm-3,,,,44,R,ugm-3,0.0,R,ugm-3,,,
04-01-2011,10:00,,,,1.1,R,ugm-3,8.0,R,ugm-3,9.7,R,ugm-3,,,,44,R,ugm-3,0.8,R,ugm-3,,,
04-01-2011,11:00,,,,1.1,R,ugm-3,7.4,R,ugm-3,9.2,R,ugm-3,,,,50,R,ugm-3,1.6,R,ugm-3,,,
04-01-2011,12:00,,,,0.0,R,ugm-3,4.6,R,ugm-3,4.6,R,ugm-3,,,,62,R,ugm-3,1.6,R,ugm-3,,,
04-01-2011,13:00,,,,0.0,R,ugm-3,3.4,R,ugm-3,3.4,R,ugm-3,,,,64,R,ugm-3,2.4,R,ugm-3,,,
04-01-2011,14:00,,,,0.0,R,ugm-3,4.6,R,ugm-3,4.6,R,ugm-3,,,,66,R,ugm-3,1.6,R,ugm-3,,,
04-01-2011,15:00,,,,0.0,R,ugm-3,5.7,R,ugm-3,5.7,R,ugm-3,,,,66,R,ugm-3,4.0,R,ugm-3,,,
04-01-2011,16:00,,,,0.0,R,ugm-3,4.0,R,ugm-3,4.0,R,ugm-3,,,,66,R,ugm-3,3.2,R,ugm-3,,,
04-01-2011,17:00,,,,0.0,R,ugm-3,5.2,R,ugm-3,5.2,R,ugm-3,,,,66,R,ugm-3,3.2,R,ugm-3,,,
04-01-2011,18:00,,,,0.0,R,ugm-3,5.2,R,ugm-3,5.2,R,ugm-3,,,,64,R,ugm-3,3.2,R,ugm-3,,,
04-01-2011,19:00,,,,0.0,R,ugm-3,4.6,R,ugm-3,4.6,R,ugm-3,,,,68,R,ugm-3,3.2,R,ugm-3,,,
04-01-2011,20:00,,,,0.0,R,ugm-3,4.6,R,ugm-3,4.6,R,ugm-3,,,,66,R,ugm-3,3.2,R,ugm-3,,,
04-01-2011,21:00,,,,0.0,R,ugm-3,2.9,R,ugm-3,2.9,R,ugm-3,,,,68,R,ugm-3,4.0,R,ugm-3,,,
04-01-2011,22:00,,,,0.0,R,ugm-3,2.3,R,ugm-3,2.3,R,ugm-3,,,,70,R,ugm-3,3.2,R,ugm-3,,,
04-01-2011,23:00,,,,0.0,R,ugm-3,2.3,R,ugm-3,2.3,R,ugm-3,,,,72,R,ugm-3,0.8,R,ugm-3,,,
04-01-2011,24:00,,,,0.0,R,ugm-3,2.3,R,ugm-3,2.3,R,ugm-3,,,,70,R,ugm-3,1.6,R,ugm-3,,,
05-01-2011,01:00,,,,0.0,R,ugm-3,0.0,R,ugm-3,0.0,R,ugm-3,,,,72,R,ugm-3,6.7,R,ugm-3,,,
05-01-2011,02:00,,,,,,,,,,,,,,,,70,R,ugm-3,6.7,R,ugm-3,,,
05-01-2011,03:00,,,,0.0,R,ugm-3,3.4,R,ugm-3,3.4,R,ugm-3,,,,70,R,ugm-3,6.7,R,ugm-3,,,
05-01-2011,04:00,,,,0.0,R,ugm-3,2.3,R,ugm-3,2.3,R,ugm-3,,,,70,R,ugm-3,6.7,R,ugm-3,,,
05-01-2011,05:00,,,,0.0,R,ugm-3,0.0,R,ugm-3,0.0,R,ugm-3,,,,68,R,ugm-3,6.7,R,ugm-3,,,
05-01-2011,06:00,,,,0.0,R,ugm-3,1.1,R,ugm-3,1.1,R,ugm-3,,,,70,R,ugm-3,6.7,R,ugm-3,,,
05-01-2011,07:00,,,,0.0,R,ugm-3,0.0,R,ugm-3,0.0,R,ugm-3,,,,70,R,ugm-3,6.7,R,ugm-3,,,
05-01-2011,08:00,,,,0.4,R,ugm-3,2.9,R,ugm-3,3.4,R,ugm-3,,,,66,R,ugm-3,6.7,R,ugm-3,,,
05-01-2011,09:00,,,,0.0,R,ugm-3,4.0,R,ugm-3,4.0,R,ugm-3,,,,62,R,ugm-3,6.7,R,ugm-3,,,
05-01-2011,10:00,,,,0.0,R,ugm-3,6.3,R,ugm-3,6.3,R,ugm-3,,,,66,R,ugm-3,9.8,R,ugm-3,,,
05-01-2011,11:00,,,,0.0,R,ugm-3,4.6,R,ugm-3,4.6,R,ugm-3,,,,66,R,ugm-3,7.4,R,ugm-3,,,
05-01-2011,12:00,,,,0.0,R,ugm-3,6.9,R,ugm-3,6.9,R,ugm-3,,,,64,R,ugm-3,6.7,R,ugm-3,,,
05-01-2011,13:00,,,,0.4,R,ugm-3,6.3,R,ugm-3,6.9,R,ugm-3,,,,64,R,ugm-3,7.4,R,ugm-3,,,
05-01-2011,14:00,,,,0.0,R,ugm-3,7.4,R,ugm-3,7.4,R,ugm-3,,,,64,R,ugm-3,6.7,R,ugm-3,,,
05-01-2011,15:00,,,,0.0,R,ugm-3,5.2,R,ugm-3,5.2,R,ugm-3,,,,68,R,ugm-3,6.7,R,ugm-3,,,
05-01-2011,16:00,,,,0.0,R,ugm-3,5.2,R,ugm-3,5.2,R,ugm-3,,,,68,R,ugm-3,6.7,R,ugm-3,,,
05-01-2011,17:00,,,,0.0,R,ugm-3,5.2,R,ugm-3,5.2,R,ugm-3,,,,68,R,ugm-3,6.7,R,ugm-3,,,
05-01-2011,18:00,,,,0.0,R,ugm-3,4.6,R,ugm-3,4.6,R,ugm-3,,,,72,R,ugm-3,1.6,R,ugm-3,,,
05-01-2011,19:00,,,,0.0,R,ugm-3,2.3,R,ugm-3,2.3,R,ugm-3,,,,76,R,ugm-3,5.1,R,ugm-3,,,
05-01-2011,20:00,,,,0.0,R,ugm-3,1.1,R,ugm-3,1.1,R,ugm-3,,,,74,R,ugm-3,6.7,R,ugm-3,,,
05-01-2011,21:00,,,,0.0,R,ugm-3,2.9,R,ugm-3,2.9,R,ugm-3,,,,72,R,ugm-3,6.7,R,ugm-3,,,
05-01-2011,22:00,,,,0.0,R,ugm-3,2.9,R,ugm-3,2.9,R,ugm-3,,,,68,R,ugm-3,6.7,R,ugm-3,,,
05-01-2011,23:00,,,,0.0,R,ugm-3,4.0,R,ugm-3,4.0,R,ugm-3,,,,66,R,ugm-3,7.4,R,ugm-3,,,
05-01-2011,24:00,,,,0.0,R,ugm-3,2.3,R,ugm-3,2.3,R,ugm-3,,,,66,R,ugm-3,6.7,R,ugm-3,,,
06-01-2011,01:00,,,,0.0,R,ugm-3,0.0,R,ugm-3,0.0,R,ugm-3,,,,68,R,ugm-3,0.0,R,ugm-3,,,
06-01-2011,02:00,,,,,,,,,,,,,,,,64,R,ugm-3,0.0,R,ugm-3,,,
06-01-2011,03:00,,,,0.0,R,ugm-3,4.6,R,ugm-3,4.6,R,ugm-3,,,,64,R,ugm-3,0.0,R,ugm-3,,,
06-01-2011,04:00,,,,0.0,R,ugm-3,1.1,R,ugm-3,1.1,R,ugm-3,,,,62,R,ugm-3,0.0,R,ugm-3,,,
06-01-2011,05:00,,,,0.0,R,ugm-3,0.0,R,ugm-3,0.0,R,ugm-3,,,,62,R,ugm-3,0.0,R,ugm-3,,,
06-01-2011,06:00,,,,0.0,R,ugm-3,0.0,R,ugm-3,0.0,R,ugm-3,,,,56,R,ugm-3,0.0,R,ugm-3,,,
06-01-2011,07:00,,,,0.0,R,ugm-3,0.0,R,ugm-3,0.0,R,ugm-3,,,,58,R,ugm-3,0.0,R,ugm-3,,,
06-01-2011,08:00,,,,0.0,R,ugm-3,0.0,R,ugm-3,0.0,R,ugm-3,,,,54,R,ugm-3,0.0,R,ugm-3,,,
06-01-2011,09:00,,,,0.0,R,ugm-3,1.1,R,ugm-3,1.1,R,ugm-3,,,,48,R,ugm-3,0.0,R,ugm-3,,,
06-01-2011,10:00,,,,0.0,R,ugm-3,4.0,R,ugm-3,4.0,R,ugm-3,,,,44,R,ugm-3,0.0,R,ugm-3,,,
06-01-2011,11:00,,,,0.0,R,ugm-3,1.7,R,ugm-3,1.7,R,ugm-3,,,,52,R,ugm-3,0.0,R,ugm-3,,,
06-01-2011,12:00,,,,0.0,R,ugm-3,2.3,R,ugm-3,2.3,R,ugm-3,,,,60,R,ugm-3,0.0,R,ugm-3,,,
06-01-2011,13:00,,,,0.4,R,ugm-3,4.0,R,ugm-3,4.6,R,ugm-3,,,,54,R,ugm-3,0.0,R,ugm-3,,,
06-01-2011,14:00,,,,0.0,R,ugm-3,4.6,R,ugm-3,4.6,R,ugm-3,,,,54,R,ugm-3,0.0,R,ugm-3,,,
06-01-2011,15:00,,,,0.0,R,ugm-3,5.7,R,ugm-3,5.7,R,ugm-3,,,,52,R,ugm-3,0.0,R,ugm-3,,,
06-01-2011,16:00,,,,0.0,R,ugm-3,5.2,R,ugm-3,5.2,R,ugm-3,,,,52,R,ugm-3,0.0,R,ugm-3,,,
06-01-2011,17:00,,,,0.0,R,ugm-3,3.4,R,ugm-3,3.4,R,ugm-3,,,,60,R,ugm-3,0.0,R,ugm-3,,,
06-01-2011,18:00,,,,0.0,R,ugm-3,0.6,R,ugm-3,0.6,R,ugm-3,,,,64,R,ugm-3,0.0,R,ugm-3,,,
06-01-2011,19:00,,,,0.0,R,ugm-3,0.0,R,ugm-3,0.0,R,ugm-3,,,,68,R,ugm-3,0.0,R,ugm-3,,,
06-01-2011,20:00,,,,0.0,R,ugm-3,0.0,R,ugm-3,0.0,R,ugm-3,,,,68,R,ugm-3,0.0,R,ugm-3,,,
06-01-2011,21:00,,,,0.0,R,ugm-3,0.0,R,ugm-3,0.0,R,ugm-3,,,,68,R,ugm-3,0.0,R,ugm-3,,,
06-01-2011,22:00,,,,0.0,R,ugm-3,0.0,R,ugm-3,0.0,R,ugm-3,,,,68,R,ugm-3,0.0,R,ugm-3,,,
06-01-2011,23:00,,,,0.0,R,ugm-3,0.0,R,ugm-3,0.0,R,ugm-3,,,,58,R,ugm-3,0.0,R,ugm-3,,,
06-01-2011,24:00,,,,0.0,R,ugm-3,0.0,R,ugm-3,0.0,R,ugm-3,,,,50,R,ugm-3,0.0,R,ugm-3,,,
07-01-2011,01:00,,,,0.0,R,ugm-3,3.8,R,ugm-3,3.8,R,ugm-3,,,,52,R,ugm-3,0.0,R,ugm-3,,,
07-01-2011,02:00,,,,,,,,,,,,,,,,64,R,ugm-3,0.0,R,ugm-3,,,
07-01-2011,03:00,,,,0.0,R,ugm-3,6.9,R,ugm-3,6.9,R,ugm-3,,,,62,R,ugm-3,0.0,R,ugm-3,,,
07-01-2011,04:00,,,,0.0,R,ugm-3,5.2,R,ugm-3,5.2,R,ugm-3,,,,60,R,ugm-3,0.0,R,ugm-3,,,
07-01-2011,05:00,,,,0.0,R,ugm-3,4.6,R,ugm-3,4.6,R,ugm-3,,,,56,R,ugm-3,0.0,R,ugm-3,,,
07-01-2011,06:00,,,,0.0,R,ugm-3,4.6,R,ugm-3,4.6,R,ugm-3,,,,58,R,ugm-3,0.0,R,ugm-3,,,
07-01-2011,07:00,,,,0.0,R,ugm-3,6.3,R,ugm-3,6.3,R,ugm-3,,,,54,R,ugm-3,2.4,R,ugm-3,,,
07-01-2011,08:00,,,,0.0,R,ugm-3,9.7,R,ugm-3,9.7,R,ugm-3,,,,46,R,ugm-3,0.0,R,ugm-3,,,
07-01-2011,09:00,,,,6.0,R,ugm-3,22.0,R,ugm-3,31.1,R,ugm-3,,,,36,R,ugm-3,2.4,R,ugm-3,,,
07-01-2011,10:00,,,,2.6,R,ugm-3,26.5,R,ugm-3,30.6,R,ugm-3,,,,28,R,ugm-3,3.2,R,ugm-3,,,
07-01-2011,11:00,,,,3.4,R,ugm-3,30.6,R,ugm-3,35.7,R,ugm-3,,,,22,R,ugm-3,3.2,R,ugm-3,,,
07-01-2011,12:00,,,,4.5,R,ugm-3,36.3,R,ugm-3,43.2,R,ugm-3,,,,18,R,ugm-3,3.2,R,ugm-3,,,
07-01-2011,13:00,,,,3.0,R,ugm-3,35.7,R,ugm-3,40.3,R,ugm-3,,,,20,R,ugm-3,0.8,R,ugm-3,,,
07-01-2011,14:00,,,,2.6,R,ugm-3,35.7,R,ugm-3,39.7,R,ugm-3,,,,22,R,ugm-3,2.4,R,ugm-3,,,
07-01-2011,15:00,,,,3.4,R,ugm-3,38.6,R,ugm-3,43.7,R,ugm-3,,,,22,R,ugm-3,0.0,R,ugm-3,,,
07-01-2011,16:00,,,,0.8,R,ugm-3,32.3,R,ugm-3,33.4,R,ugm-3,,,,34,R,ugm-3,0.0,R,ugm-3,,,
07-01-2011,17:00,,,,0.0,R,ugm-3,7.4,R,ugm-3,7.4,R,ugm-3,,,,76,R,ugm-3,0.0,R,ugm-3,,,
07-01-2011,18:00,,,,0.0,R,ugm-3,6.9,R,ugm-3,6.9,R,ugm-3,,,,80,R,ugm-3,0.0,R,ugm-3,,,
07-01-2011,19:00,,,,0.0,R,ugm-3,6.3,R,ugm-3,6.3,R,ugm-3,,,,78,R,ugm-3,0.0,R,ugm-3,,,
07-01-2011,20:00,,,,0.0,R,ugm-3,6.9,R,ugm-3,6.9,R,ugm-3,,,,78,R,ugm-3,0.0,R,ugm-3,,,
07-01-2011,21:00,,,,0.0,R,ugm-3,6.9,R,ugm-3,6.9,R,ugm-3,,,,76,R,ugm-3,0.0,R,ugm-3,,,
07-01-2011,22:00,,,,0.0,R,ugm-3,6.9,R,ugm-3,6.9,R,ugm-3,,,,76,R,ugm-3,0.0,R,ugm-3,,,
07-01-2011,23:00,,,,0.0,R,ugm-3,6.9,R,ugm-3,6.9,R,ugm-3,,,,76,R,ugm-3,0.0,R,ugm-3,,,
07-01-2011,24:00,,,,0.0,R,ugm-3,6.3,R,ugm-3,6.3,R,ugm-3,,,,76,R,ugm-3,0.0,R,ugm-3,,,
08-01-2011,01:00,,,,0.0,R,ugm-3,1.5,R,ugm-3,1.5,R,ugm-3,,,,80,R,ugm-3,0.0,R,ugm-3,,,
08-01-2011,02:00,,,,,,,,,,,,,,,,82,R,ugm-3,2.1,R,ugm-3,,,
08-01-2011,03:00,,,,0.0,R,ugm-3,4.6,R,ugm-3,4.6,R,ugm-3,,,,82,R,ugm-3,0.0,R,ugm-3,,,
08-01-2011,04:00,,,,0.0,R,ugm-3,2.9,R,ugm-3,2.9,R,ugm-3,,,,76,R,ugm-3,1.6,R,ugm-3,,,
08-01-2011,05:00,,,,0.0,R,ugm-3,11.5,R,ugm-3,11.5,R,ugm-3,,,,44,R,ugm-3,0.0,R,ugm-3,,,
08-01-2011,06:00,,,,0.0,R,ugm-3,10.3,R,ugm-3,10.3,R,ugm-3,,,,38,R,ugm-3,0.0,R,ugm-3,,,
08-01-2011,07:00,,,,0.0,R,ugm-3,6.9,R,ugm-3,6.9,R,ugm-3,,,,46,R,ugm-3,0.0,R,ugm-3,,,
08-01-2011,08:00,,,,0.0,R,ugm-3,6.9,R,ugm-3,6.9,R,ugm-3,,,,48,R,ugm-3,0.0,R,ugm-3,,,
08-01-2011,09:00,,,,0.0,R,ugm-3,4.6,R,ugm-3,4.6,R,ugm-3,,,,56,R,ugm-3,0.8,R,ugm-3,,,
08-01-2011,10:00,,,,0.0,R,ugm-3,4.6,R,ugm-3,4.6,R,ugm-3,,,,52,R,ugm-3,0.0,R,ugm-3,,,
08-01-2011,11:00,,,,0.0,R,ugm-3,2.9,R,ugm-3,2.9,R,ugm-3,,,,56,R,ugm-3,0.0,R,ugm-3,,,
08-01-2011,12:00,,,,0.0,R,ugm-3,0.6,R,ugm-3,0.6,R,ugm-3,,,,66,R,ugm-3,0.0,R,ugm-3,,,
08-01-2011,13:00,,,,0.0,R,ugm-3,0.6,R,ugm-3,0.6,R,ugm-3,,,,74,R,ugm-3,0.0,R,ugm-3,,,
08-01-2011,14:00,,,,0.0,R,ugm-3,1.7,R,ugm-3,1.7,R,ugm-3,,,,78,R,ugm-3,0.8,R,ugm-3,,,
08-01-2011,15:00,,,,0.0,R,ugm-3,0.0,R,ugm-3,0.0,R,ugm-3,,,,84,R,ugm-3,0.0,R,ugm-3,,,
08-01-2011,16:00,,,,0.0,R,ugm-3,2.3,R,ugm-3,2.3,R,ugm-3,,,,78,R,ugm-3,1.6,R,ugm-3,,,
08-01-2011,17:00,,,,0.0,R,ugm-3,3.4,R,ugm-3,3.4,R,ugm-3,,,,74,R,ugm-3,0.0,R,ugm-3,,,
08-01-2011,18:00,,,,0.0,R,ugm-3,2.9,R,ugm-3,2.9,R,ugm-3,,,,70,R,ugm-3,1.6,R,ugm-3,,,
08-01-2011,19:00,,,,0.0,R,ugm-3,1.1,R,ugm-3,1.1,R,ugm-3,,,,72,R,ugm-3,3.2,R,ugm-3,,,
08-01-2011,20:00,,,,0.0,R,ugm-3,1.1,R,ugm-3,1.1,R,ugm-3,,,,70,R,ugm-3,0.8,R,ugm-3,,,
08-01-2011,21:00,,,,0.0,R,ugm-3,0.6,R,ugm-3,0.6,R,ugm-3,,,,70,R,ugm-3,0.8,R,ugm-3,,,
08-01-2011,22:00,,,,0.0,R,ugm-3,0.0,R,ugm-3,0.0,R,ugm-3,,,,66,R,ugm-3,0.8,R,ugm-3,,,
08-01-2011,23:00,,,,0.0,R,ugm-3,0.0,R,ugm-3,0.0,R,ugm-3,,,,72,R,ugm-3,0.0,R,ugm-3,,,
08-01-2011,24:00,,,,0.0,R,ugm-3,0.0,R,ugm-3,0.0,R,ugm-3,,,,70,R,ugm-3,0.0,R,ugm-3,,,
09-01-2011,01:00,,,,0.0,R,ugm-3,2.3,R,ugm-3,2.3,R,ugm-3,,,,68,R,ugm-3,3.2,R,ugm-3,,,
09-01-2011,02:00,,,,,,,,,,,,,,,,66,R,ugm-3,3.2,R,ugm-3,,,
09-01-2011,03:00,,,,0.0,R,ugm-3,4.0,R,ugm-3,4.0,R,ugm-3,,,,66,R,ugm-3,0.8,R,ugm-3,,,
09-01-2011,04:00,,,,0.0,R,ugm-3,2.3,R,ugm-3,2.3,R,ugm-3,,,,66,R,ugm-3,2.4,R,ugm-3,,,
09-01-2011,05:00,,,,0.0,R,ugm-3,2.3,R,ugm-3,2.3,R,ugm-3,,,,66,R,ugm-3,3.2,R,ugm-3,,,
09-01-2011,06:00,,,,0.0,R,ugm-3,2.3,R,ugm-3,2.3,R,ugm-3,,,,66,R,ugm-3,3.2,R,ugm-3,,,
09-01-2011,07:00,,,,0.0,R,ugm-3,2.3,R,ugm-3,2.3,R,ugm-3,,,,64,R,ugm-3,3.2,R,ugm-3,,,
09-01-2011,08:00,,,,0.0,R,ugm-3,2.3,R,ugm-3,2.3,R,ugm-3,,,,66,R,ugm-3,3.2,R,ugm-3,,,
09-01-2011,09:00,,,,0.0,R,ugm-3,2.3,R,ugm-3,2.3,R,ugm-3,,,,66,R,ugm-3,3.2,R,ugm-3,,,
09-01-2011,10:00,,,,0.0,R,ugm-3,2.3,R,ugm-3,2.3,R,ugm-3,,,,64,R,ugm-3,3.2,R,ugm-3,,,
09-01-2011,11:00,,,,0.0,R,ugm-3,2.9,R,ugm-3,2.9,R,ugm-3,,,,64,R,ugm-3,3.2,R,ugm-3,,,
09-01-2011,12:00,,,,0.0,R,ugm-3,4.6,R,ugm-3,4.6,R,ugm-3,,,,60,R,ugm-3,3.2,R,ugm-3,,,
09-01-2011,13:00,,,,0.0,R,ugm-3,4.0,R,ugm-3,4.0,R,ugm-3,,,,66,R,ugm-3,3.2,R,ugm-3,,,
09-01-2011,14:00,,,,0.0,R,ugm-3,3.4,R,ugm-3,3.4,R,ugm-3,,,,68,R,ugm-3,3.2,R,ugm-3,,,
09-01-2011,15:00,,,,0.0,R,ugm-3,2.3,R,ugm-3,2.3,R,ugm-3,,,,68,R,ugm-3,3.2,R,ugm-3,,,
09-01-2011,16:00,,,,0.0,R,ugm-3,4.6,R,ugm-3,4.6,R,ugm-3,,,,66,R,ugm-3,3.2,R,ugm-3,,,
09-01-2011,17:00,,,,0.4,R,ugm-3,8.6,R,ugm-3,9.2,R,ugm-3,,,,62,R,ugm-3,2.4,R,ugm-3,,,
09-01-2011,18:00,,,,1.1,R,ugm-3,9.2,R,ugm-3,10.9,R,ugm-3,,,,50,R,ugm-3,0.8,R,ugm-3,,,
09-01-2011,19:00,,,,0.0,R,ugm-3,5.2,R,ugm-3,5.2,R,ugm-3,,,,52,R,ugm-3,3.2,R,ugm-3,,,
09-01-2011,20:00,,,,0.0,R,ugm-3,2.3,R,ugm-3,2.3,R,ugm-3,,,,62,R,ugm-3,3.2,R,ugm-3,,,
09-01-2011,21:00,,,,0.0,R,ugm-3,2.3,R,ugm-3,2.3,R,ugm-3,,,,60,R,ugm-3,3.2,R,ugm-3,,,
09-01-2011,22:00,,,,0.0,R,ugm-3,2.3,R,ugm-3,2.3,R,ugm-3,,,,60,R,ugm-3,3.2,R,ugm-3,,,
09-01-2011,23:00,,,,0.0,R,ugm-3,2.3,R,ugm-3,2.3,R,ugm-3,,,,62,R,ugm-3,3.2,R,ugm-3,,,
09-01-2011,24:00,,,,0.0,R,ugm-3,2.3,R,ugm-3,2.3,R,ugm-3,,,,58,R,ugm-3,3.2,R,ugm-3,,,
10-01-2011,01:00,,,,0.0,R,ugm-3,0.0,R,ugm-3,0.0,R,ugm-3,,,,62,R,ugm-3,6.7,R,ugm-3,,,
10-01-2011,02:00,,,,,,,,,,,,,,,,54,R,ugm-3,6.7,R,ugm-3,,,
10-01-2011,03:00,,,,0.0,R,ugm-3,4.0,R,ugm-3,4.0,R,ugm-3,,,,54,R,ugm-3,6.7,R,ugm-3,,,
10-01-2011,04:00,,,,0.0,R,ugm-3,2.3,R,ugm-3,2.3,R,ugm-3,,,,62,R,ugm-3,6.7,R,ugm-3,,,
10-01-2011,05:00,,,,0.0,R,ugm-3,2.3,R,ugm-3,2.3,R,ugm-3,,,,62,R,ugm-3,6.7,R,ugm-3,,,
10-01-2011,06:00,,,,0.0,R,ugm-3,1.1,R,ugm-3,1.1,R,ugm-3,,,,64,R,ugm-3,6.7,R,ugm-3,,,
10-01-2011,07:00,,,,0.0,R,ugm-3,0.0,R,ugm-3,0.0,R,ugm-3,,,,70,R,ugm-3,6.7,R,ugm-3,,,
10-01-2011,08:00,,,,0.0,R,ugm-3,2.3,R,ugm-3,2.3,R,ugm-3,,,,70,R,ugm-3,6.7,R,ugm-3,,,
10-01-2011,09:00,,,,0.0,R,ugm-3,2.3,R,ugm-3,2.3,R,ugm-3,,,,72,R,ugm-3,6.7,R,ugm-3,,,
10-01-2011,10:00,,,,0.0,R,ugm-3,1.7,R,ugm-3,1.7,R,ugm-3,,,,76,R,ugm-3,6.7,R,ugm-3,,,
10-01-2011,11:00,,,,0.0,R,ugm-3,0.0,R,ugm-3,0.0,R,ugm-3,,,,78,R,ugm-3,6.7,R,ugm-3,,,
10-01-2011,12:00,,,,0.0,R,ugm-3,0.0,R,ugm-3,0.0,R,ugm-3,,,,78,R,ugm-3,6.7,R,ugm-3,,,
10-01-2011,13:00,,,,0.0,R,ugm-3,0.0,R,ugm-3,0.0,R,ugm-3,,,,78,R,ugm-3,6.7,R,ugm-3,,,
10-01-2011,14:00,,,,0.0,R,ugm-3,0.0,R,ugm-3,0.0,R,ugm-3,,,,78,R,ugm-3,6.7,R,ugm-3,,,
10-01-2011,15:00,,,,0.0,R,ugm-3,0.0,R,ugm-3,0.0,R,ugm-3,,,,78,R,ugm-3,6.7,R,ugm-3,,,
10-01-2011,16:00,,,,0.0,R,ugm-3,0.0,R,ugm-3,0.0,R,ugm-3,,,,76,R,ugm-3,6.7,R,ugm-3,,,
10-01-2011,17:00,,,,0.0,R,ugm-3,0.0,R,ugm-3,0.0,R,ugm-3,,,,78,R,ugm-3,6.7,R,ugm-3,,,
10-01-2011,18:00,,,,0.0,R,ugm-3,0.0,R,ugm-3,0.0,R,ugm-3,,,,78,R,ugm-3,5.1,R,ugm-3,,,
10-01-2011,19:00,,,,0.0,R,ugm-3,0.0,R,ugm-3,0.0,R,ugm-3,,,,76,R,ugm-3,1.6,R,ugm-3,,,
10-01-2011,20:00,,,,0.0,R,ugm-3,0.6,R,ugm-3,0.6,R,ugm-3,,,,74,R,ugm-3,6.7,R,ugm-3,,,
10-01-2011,21:00,,,,0.0,R,ugm-3,0.0,R,ugm-3,0.0,R,ugm-3,,,,76,R,ugm-3,6.7,R,ugm-3,,,
10-01-2011,22:00,,,,0.0,R,ugm-3,0.0,R,ugm-3,0.0,R,ugm-3,,,,78,R,ugm-3,7.4,R,ugm-3,,,
10-01-2011,23:00,,,,0.0,R,ugm-3,2.3,R,ugm-3,2.3,R,ugm-3,,,,78,R,ugm-3,7.4,R,ugm-3,,,
10-01-2011,24:00,,,,0.0,R,ugm-3,2.3,R,ugm-3,2.3,R,ugm-3,,,,78,R,ugm-3,8.2,R,ugm-3,,,
11-01-2011,01:00,,,,1.5,R,ugm-3,4.6,R,ugm-3,6.9,R,ugm-3,,,,82,R,ugm-3,6.7,R,ugm-3,,,
11-01-2011,02:00,,,,,,,,,,,,,,,,80,R,ugm-3,6.7,R,ugm-3,,,
11-01-2011,03:00,,,,1.5,R,ugm-3,6.3,R,ugm-3,8.6,R,ugm-3,,,,86,R,ugm-3,5.1,R,ugm-3,,,
11-01-2011,04:00,,,,1.5,R,ugm-3,4.6,R,ugm-3,6.9,R,ugm-3,,,,78,R,ugm-3,3.2,R,ugm-3,,,
11-01-2011,05:00,,,,1.5,R,ugm-3,5.2,R,ugm-3,7.4,R,ugm-3,,,,64,R,ugm-3,3.2,R,ugm-3,,,
11-01-2011,06:00,,,,1.5,R,ugm-3,6.3,R,ugm-3,8.6,R,ugm-3,,,,58,R,ugm-3,3.2,R,ugm-3,,,
11-01-2011,07:00,,,,0.8,R,ugm-3,5.2,R,ugm-3,6.3,R,ugm-3,,,,66,R,ugm-3,3.2,R,ugm-3,,,
11-01-2011,08:00,,,,1.5,R,ugm-3,2.3,R,ugm-3,4.6,R,ugm-3,,,,70,R,ugm-3,3.2,R,ugm-3,,,
11-01-2011,09:00,,,,1.5,R,ugm-3,2.3,R,ugm-3,4.6,R,ugm-3,,,,72,R,ugm-3,3.2,R,ugm-3,,,
11-01-2011,10:00,,,,1.5,R,ugm-3,2.3,R,ugm-3,4.6,R,ugm-3,,,,72,R,ugm-3,3.2,R,ugm-3,,,
11-01-2011,11:00,,,,1.5,R,ugm-3,2.3,R,ugm-3,4.6,R,ugm-3,,,,74,R,ugm-3,2.4,R,ugm-3,,,
11-01-2011,12:00,,,,,,,,,,,,,,,,52,R,ugm-3,3.2,R,ugm-3,,,
11-01-2011,13:00,,,,1.5,R,ugm-3,3.4,R,ugm-3,5.7,R,ugm-3,,,,46,R,ugm-3,1.6,R,ugm-3,,,
11-01-2011,14:00,,,,1.5,R,ugm-3,2.3,R,ugm-3,4.6,R,ugm-3,,,,56,R,ugm-3,0.8,R,ugm-3,,,
11-01-2011,15:00,,,,1.5,R,ugm-3,2.3,R,ugm-3,4.6,R,ugm-3,,,,60,R,ugm-3,2.4,R,ugm-3,,,
11-01-2011,16:00,,,,1.5,R,ugm-3,2.9,R,ugm-3,5.2,R,ugm-3,,,,58,R,ugm-3,3.2,R,ugm-3,,,
11-01-2011,17:00,,,,1.9,R,ugm-3,9.7,R,ugm-3,12.6,R,ugm-3,,,,52,R,ugm-3,1.6,R,ugm-3,,,
11-01-2011,18:00,,,,2.6,R,ugm-3,13.4,R,ugm-3,17.4,R,ugm-3,,,,40,R,ugm-3,3.2,R,ugm-3,,,
11-01-2011,19:00,,,,1.5,R,ugm-3,11.5,R,ugm-3,13.8,R,ugm-3,,,,42,R,ugm-3,1.6,R,ugm-3,,,
11-01-2011,20:00,,,,1.5,R,ugm-3,6.9,R,ugm-3,9.2,R,ugm-3,,,,50,R,ugm-3,3.2,R,ugm-3,,,
11-01-2011,21:00,,,,1.5,R,ugm-3,1.1,R,ugm-3,3.4,R,ugm-3,,,,60,R,ugm-3,3.2,R,ugm-3,,,
11-01-2011,22:00,,,,1.5,R,ugm-3,0.0,R,ugm-3,2.3,R,ugm-3,,,,66,R,ugm-3,3.2,R,ugm-3,,,
11-01-2011,23:00,,,,0.8,R,ugm-3,1.1,R,ugm-3,2.3,R,ugm-3,,,,74,R,ugm-3,1.6,R,ugm-3,,,
11-01-2011,24:00,,,,1.5,R,ugm-3,0.0,R,ugm-3,2.3,R,ugm-3,,,,76,R,ugm-3,0.0,R,ugm-3,,,
12-01-2011,01:00,,,,1.5,R,ugm-3,0.0,R,ugm-3,2.3,R,ugm-3,,,,68,R,ugm-3,2.1,R,ugm-3,,,
12-01-2011,02:00,,,,,,,,,,,,,,,,64,R,ugm-3,3.2,R,ugm-3,,,
12-01-2011,03:00,,,,1.5,R,ugm-3,2.3,R,ugm-3,4.6,R,ugm-3,,,,66,R,ugm-3,2.4,R,ugm-3,,,
12-01-2011,04:00,,,,1.1,R,ugm-3,1.1,R,ugm-3,2.9,R,ugm-3,,,,62,R,ugm-3,0.8,R,ugm-3,,,
12-01-2011,05:00,,,,0.8,R,ugm-3,1.7,R,ugm-3,2.9,R,ugm-3,,,,64,R,ugm-3,3.2,R,ugm-3,,,
12-01-2011,06:00,,,,1.5,R,ugm-3,2.3,R,ugm-3,4.6,R,ugm-3,,,,64,R,ugm-3,4.0,R,ugm-3,,,
12-01-2011,07:00,,,,1.5,R,ugm-3,3.4,R,ugm-3,5.7,R,ugm-3,,,,62,R,ugm-3,5.6,R,ugm-3,,,
12-01-2011,08:00,,,,1.5,R,ugm-3,5.2,R,ugm-3,7.4,R,ugm-3,,,,60,R,ugm-3,5.6,R,ugm-3,,,
12-01-2011,09:00,,,,1.5,R,ugm-3,5.7,R,ugm-3,8.0,R,ugm-3,,,,60,R,ugm-3,5.6,R,ugm-3,,,
12-01-2011,10:00,,,,1.5,R,ugm-3,6.3,R,ugm-3,8.6,R,ugm-3,,,,60,R,ugm-3,3.2,R,ugm-3,,,
12-01-2011,11:00,,,,1.1,R,ugm-3,5.7,R,ugm-3,7.4,R,ugm-3,,,,60,R,ugm-3,6.4,R,ugm-3,,,
12-01-2011,12:00,,,,1.1,R,ugm-3,4.0,R,ugm-3,5.7,R,ugm-3,,,,60,R,ugm-3,6.4,R,ugm-3,,,
12-01-2011,13:00,,,,1.9,R,ugm-3,5.7,R,ugm-3,8.6,R,ugm-3,,,,60,R,ugm-3,7.2,R,ugm-3,,,
12-01-2011,14:00,,,,1.5,R,ugm-3,5.2,R,ugm-3,7.4,R,ugm-3,,,,60,R,ugm-3,7.2,R,ugm-3,,,
12-01-2011,15:00,,,,1.5,R,ugm-3,6.9,R,ugm-3,9.2,R,ugm-3,,,,60,R,ugm-3,6.4,R,ugm-3,,,
12-01-2011,16:00,,,,1.5,R,ugm-3,9.2,R,ugm-3,11.5,R,ugm-3,,,,58,R,ugm-3,8.2,R,ugm-3,,,